Regional Weather Roundup
Issued by NWS

Home | Current Version | Previous Version | Text Only | Print | Product List | Glossary Off
Versions: 1 2 3 4 5 6 7 8 9 10 11 12 13 14 15 16 17 18 19 20 21 22 23 24 25 26 27 28 29 30 31 32 33 34 35 36 37 38 39 40 41 42 43 44 45 46 47 48 49 50

000
ASUS43 KFSD 021510
RWRSD

WEATHER ROUNDUP FOR SOUTH DAKOTA
NATIONAL WEATHER SERVICE SIOUX FALLS SD
1000 AM CDT TUE JUN 02 2015

NOTE: "FAIR" INDICATES FEW OR NO CLOUDS BELOW 12,000 FEET WITH NO
SIGNIFICANT WEATHER AND/OR OBSTRUCTIONS TO VISIBILITY.


SDZ001>005-009-010-012>017-021600-
NORTHWEST AND NORTH CENTRAL SOUTH DAKOTA

CITY           SKY/WX    TMP DP  RH WIND       PRES   REMARKS
BUFFALO          N/A     67  56  67 VRB5      29.77F
FAITH            N/A     72  60  66 CALM      29.76F
MOBRIDGE       SUNNY     73  64  73 SE14      29.72F
$$

SDZ012>016-024>037-041>051-057-063-072>074-021600-
SOUTHWEST AND SOUTH CENTRAL SOUTH DAKOTA

CITY           SKY/WX    TMP DP  RH WIND       PRES   REMARKS
RAPID CTY ARPT SUNNY     71  56  58 NW16      29.81F
PIERRE         MOSUNNY   72  62  71 SE15      29.74F
CUSTER         SUNNY     71  44  37 W12       29.95S
ELLSWORTH AFB  SUNNY     70  57  64 NW15      29.81F
PHILIP         SUNNY     75  59  57 W14       29.76R
PINE RIDGE     MOSUNNY   75  54  47 W13G20    29.85S
SPEARFISH      FAIR      66  54  63 NW9       29.88F
WINNER         FAIR      75  59  57 S16       29.82F
$$

SDZ004>011-016>023-039-040-021600-
NORTHEAST SOUTH DAKOTA

CITY           SKY/WX    TMP DP  RH WIND       PRES   REMARKS
ABERDEEN       CLOUDY    63  58  83 S20G29    29.80F
WATERTOWN      PTSUNNY   66  56  70 S13       29.91F
BROOKINGS      MOSUNNY   66  55  68 S21       29.93S
SISSETON         N/A     66  56  70 S18       29.88F
$$

SDZ017-020-022-023-036>040-048>070-021600-
SOUTHEAST SOUTH DAKOTA

CITY           SKY/WX    TMP DP  RH WIND       PRES   REMARKS
SIOUX FALLS    PTSUNNY   66  56  70 S17G30    29.93F
HURON          CLOUDY    67  57  70 S14G21    29.86F
CHAMBERLAIN    SUNNY     70  60  70 S20G25    29.81F
MITCHELL       PTSUNNY   70  59  68 S25       29.86F
YANKTON        MOSUNNY   66  55  68 S21G26    29.91S
$$

ABBREVIATIONS USED IN REMARKS
   TC - TEMPERATURE IN CELSIUS
  WCI - WIND CHILL INDEX
   HX - HEAT INDEX
  VSB - VISIBILITY




USA.gov is the U.S. government's official web portal to all federal, state and local government web resources and services.